Weather History for Osceola, WI

Change the Weather History Date:

Sunday, July 28, 2013

  Actual Average (KMSP) Record (KMSP)
Temperature  
Mean Temperature 60 °F 73 °F  
Max Temperature 70 °F 83 °F 100 °F (1955)
Min Temperature 51 °F 64 °F 50 °F (1981)
Degree Days  
Heating Degree Days 4 0  
Month to date heating degree days 0  
Since 1 June heating degree days 44  
Since 1 July heating degree days 0  
Cooling Degree Days 0 9  
Month to date cooling degree days 250  
Year to date cooling degree days 450  
Since 1 June cooling degree days 408  
Growing Degree Days 10 (Base 50)    
Moisture  
Dew Point 51 °F    
Average Humidity 77    
Maximum Humidity 99    
Minimum Humidity 55    
Precipitation  
Precipitation 0.00 in 0.13 in 1.48 in (1942)
Month to date precipitation 3.62  
Year to date precipitation 17.45  
Snow  
Snow 0.00 in 0.00 in 0.00 in ()
Month to date snowfall 0.0  
Since 1 June snowfall 0.0  
Since 1 July snowfall 0.0  
Snow Depth -    
Sea Level Pressure  
Sea Level Pressure 30.02 in    
Wind  
Wind Speed 6 mph (NW)    
Max Wind Speed 12 mph    
Max Gust Speed 17 mph    
Visibility 10 miles    
Events      
T = Trace of Precipitation, MM = Missing Value Source: NWS Daily Summary

Daily Weather History Graph

Daily Weather History Graph

Search for Another Location

Airport:

Trip Planner

Search our weather history database for the weather conditions in past years. The results will help you decide how hot, cold, wet, or windy it might be!

Date:

Astronomy

Jul. 28, 2013 Rise Set
Actual Time 5:50 AM CDT 8:42 PM CDT
Civil Twilight 5:16 AM CDT 9:17 PM CDT
Nautical Twilight 4:32 AM CDT 10:00 PM CDT
Astronomical Twilight 3:40 AM CDT 10:52 PM CDT
Moon 11:41 PM CDT (7/28) 12:56 PM CDT (7/28)
Length of Visible Light 16h 00m
Length of Day
14h 51m
Waning Gibbous, 60% of the Moon is Illuminated
Jul 28
Waning Gibbous
Jul 29
Last Quarter
Aug 6
New
Aug 14
First Quarter
Aug 20
Full

Hourly Weather History & Observations

Time (CDT) Temp. Dew Point Humidity Pressure Visibility Wind Dir Wind Speed Gust Speed Precip Events Conditions
12:15 AM 53.2 °F 48.4 °F 84% 29.98 in 10.0 mi North 5.8 mph - N/A   Overcast
12:35 AM 53.1 °F 48.4 °F 84% 29.98 in 10.0 mi NW 5.8 mph - N/A   Overcast
12:55 AM 53.1 °F 48.2 °F 84% 29.98 in 10.0 mi NW 6.9 mph - N/A   Overcast
1:15 AM 53.1 °F 48.2 °F 84% 29.98 in 10.0 mi NW 6.9 mph - N/A   Overcast
1:35 AM 52.7 °F 48.0 °F 84% 29.98 in 10.0 mi NW 9.2 mph - N/A   Overcast
1:55 AM 52.3 °F 47.7 °F 84% 29.98 in 10.0 mi NW 9.2 mph - N/A   Overcast
2:15 AM 52.0 °F 47.8 °F 86% 29.98 in 10.0 mi NW 4.6 mph - N/A   Overcast
2:35 AM 51.8 °F 47.7 °F 86% 29.98 in 10.0 mi NW 10.4 mph - N/A   Overcast
2:55 AM 51.8 °F 47.7 °F 86% 29.98 in 10.0 mi NW 8.1 mph - N/A   Overcast
3:15 AM 51.8 °F 47.7 °F 86% 29.99 in 10.0 mi NW 5.8 mph - N/A   Overcast
3:35 AM 51.8 °F 47.5 °F 85% 29.99 in 10.0 mi NW 9.2 mph - N/A   Overcast
3:55 AM 51.8 °F 47.5 °F 85% 29.99 in 10.0 mi NW 6.9 mph - N/A   Overcast
4:15 AM 51.8 °F 47.5 °F 85% 29.99 in 10.0 mi NNW 4.6 mph - N/A   Overcast
4:35 AM 51.8 °F 47.5 °F 85% 29.99 in 10.0 mi NW 5.8 mph - N/A   Overcast
4:55 AM 51.8 °F 47.5 °F 85% 30.00 in 10.0 mi NNW 5.8 mph - N/A   Overcast
5:15 AM 51.8 °F 47.8 °F 86% 30.01 in 10.0 mi NW 4.6 mph - N/A   Overcast
5:35 AM 51.8 °F 47.5 °F 85% 30.00 in 10.0 mi NW 8.1 mph - N/A   Overcast
5:55 AM 51.8 °F 47.7 °F 86% 30.00 in 10.0 mi NW 4.6 mph - N/A   Overcast
6:15 AM 51.8 °F 47.5 °F 85% 30.00 in 10.0 mi NW 6.9 mph - N/A   Overcast
6:35 AM 51.8 °F 47.5 °F 85% 30.00 in 10.0 mi NNW 6.9 mph - N/A   Overcast
6:55 AM 51.8 °F 47.3 °F 85% 30.00 in 10.0 mi NW 6.9 mph - N/A   Overcast
7:15 AM 51.8 °F 46.9 °F 83% 30.01 in 10.0 mi NNW 8.1 mph - N/A   Overcast
7:35 AM 51.8 °F 46.9 °F 83% 30.01 in 10.0 mi NW 8.1 mph - N/A   Overcast
7:55 AM 52.7 °F 47.5 °F 82% 30.01 in 10.0 mi NW 8.1 mph - N/A   Overcast
8:15 AM 52.7 °F 47.3 °F 82% 30.00 in 10.0 mi NW 8.1 mph - N/A   Overcast
8:35 AM 52.7 °F 47.3 °F 82% 30.01 in 10.0 mi NW 5.8 mph - N/A   Overcast
8:55 AM 53.4 °F 48.0 °F 82% 30.01 in 10.0 mi NW 5.8 mph - N/A   Overcast
9:15 AM 55.6 °F 48.7 °F 78% 30.01 in 10.0 mi WNW 9.2 mph - N/A   Overcast
9:35 AM 54.5 °F 48.2 °F 79% 30.01 in 10.0 mi NW 6.9 mph - N/A   Overcast
9:55 AM 55.6 °F 49.1 °F 79% 30.01 in 10.0 mi NW 5.8 mph - N/A   Overcast
10:15 AM 55.8 °F 49.3 °F 79% 30.01 in 10.0 mi WNW 5.8 mph - N/A   Overcast
10:35 AM 56.5 °F 49.5 °F 77% 30.01 in 10.0 mi West 10.4 mph - N/A   Overcast
10:55 AM 58.1 °F 50.4 °F 75% 30.01 in 10.0 mi West 6.9 mph - N/A   Overcast
11:15 AM 58.6 °F 50.2 °F 73% 30.01 in 10.0 mi WNW 9.2 mph - N/A   Overcast
11:35 AM 59.2 °F 50.2 °F 72% 30.02 in 10.0 mi WNW 5.8 mph - N/A   Overcast
11:55 AM 60.6 °F 50.4 °F 69% 30.01 in 10.0 mi WNW 6.9 mph - N/A   Overcast
12:15 PM 61.2 °F 50.7 °F 69% 30.02 in 10.0 mi WNW 6.9 mph - N/A   Overcast
12:35 PM 61.7 °F 51.4 °F 69% 30.02 in 10.0 mi NW 8.1 mph - N/A   Overcast
12:55 PM 63.5 °F 52.0 °F 66% 30.02 in 10.0 mi WNW 9.2 mph - N/A   Overcast
1:15 PM 64.8 °F 52.3 °F 64% 30.02 in 10.0 mi NW 5.8 mph - N/A   Overcast
1:35 PM 65.7 °F 52.7 °F 63% 30.02 in 10.0 mi NW 5.8 mph - N/A   Mostly Cloudy
1:55 PM 65.5 °F 51.1 °F 60% 30.02 in 10.0 mi WNW 5.8 mph - N/A   Mostly Cloudy
2:15 PM 65.5 °F 52.3 °F 62% 30.02 in 10.0 mi NW 8.1 mph - N/A   Overcast
2:35 PM 67.1 °F 53.1 °F 61% 30.02 in 10.0 mi WNW 8.1 mph - N/A   Overcast
2:55 PM 67.1 °F 53.1 °F 61% 30.02 in 10.0 mi NW 6.9 mph - N/A   Overcast
3:15 PM 68.5 °F 53.1 °F 58% 30.01 in 10.0 mi NW 5.8 mph - N/A   Overcast
3:35 PM 69.1 °F 54.1 °F 59% 30.01 in 10.0 mi WNW 11.5 mph - N/A   Mostly Cloudy
3:55 PM 70.2 °F 53.2 °F 55% 30.01 in 10.0 mi WNW 9.2 mph 17.3 mph N/A   Mostly Cloudy
4:15 PM 70.0 °F 53.4 °F 56% 30.01 in 10.0 mi WNW 8.1 mph - N/A   Mostly Cloudy
4:35 PM 68.7 °F 52.5 °F 56% 30.01 in 10.0 mi NW 8.1 mph - N/A   Overcast
4:55 PM 67.3 °F 53.1 °F 60% 30.01 in 10.0 mi North 10.4 mph - N/A   Overcast
5:15 PM 67.1 °F 53.8 °F 62% 30.02 in 10.0 mi NNW 10.4 mph - N/A   Overcast
5:35 PM 67.8 °F 54.0 °F 61% 30.03 in 10.0 mi North 9.2 mph - N/A   Mostly Cloudy
5:55 PM 68.2 °F 53.2 °F 59% 30.03 in 10.0 mi NNW 10.4 mph - N/A   Scattered Clouds
6:15 PM 67.5 °F 52.5 °F 59% 30.03 in 10.0 mi North 9.2 mph - N/A   Clear
6:35 PM 66.7 °F 52.3 °F 60% 30.03 in 10.0 mi North 8.1 mph - N/A   Clear
6:55 PM 66.9 °F 52.3 °F 59% 30.04 in 10.0 mi North 4.6 mph - N/A   Scattered Clouds
7:15 PM 65.8 °F 52.9 °F 63% 30.04 in 10.0 mi North 5.8 mph - N/A   Scattered Clouds
7:35 PM 64.6 °F 53.1 °F 66% 30.05 in 10.0 mi Calm Calm - N/A   Mostly Cloudy
7:55 PM 64.6 °F 54.7 °F 70% 30.05 in 10.0 mi Calm Calm - N/A   Scattered Clouds
8:15 PM 63.7 °F 54.1 °F 71% 30.05 in 10.0 mi Calm Calm - N/A   Clear
8:35 PM 61.9 °F 55.4 °F 79% 30.05 in 10.0 mi Calm Calm - N/A   Clear
8:55 PM 61.2 °F 54.0 °F 77% 30.05 in 10.0 mi Calm Calm - N/A   Clear
9:15 PM 58.5 °F 54.1 °F 86% 30.06 in 10.0 mi Calm Calm - N/A   Clear
9:35 PM 56.1 °F 53.8 °F 92% 30.07 in 10.0 mi Calm Calm - N/A   Clear
9:55 PM 54.7 °F 53.6 °F 96% 30.08 in 10.0 mi Calm Calm - N/A   Clear
10:15 PM 54.9 °F 53.2 °F 94% 30.08 in 10.0 mi Calm Calm - N/A   Clear
10:35 PM 54.5 °F 52.7 °F 94% 30.09 in 10.0 mi Calm Calm - N/A   Clear
10:55 PM 54.0 °F 53.1 °F 97% 30.08 in 10.0 mi Calm Calm - N/A   Clear
11:15 PM 53.8 °F 52.7 °F 96% 30.09 in 10.0 mi Calm Calm - N/A   Clear
11:35 PM 52.9 °F 52.0 °F 97% 30.09 in 10.0 mi Calm Calm - N/A   Clear
11:55 PM 52.3 °F 52.0 °F 99% 30.10 in 10.0 mi Calm Calm - N/A   Clear